Home > Weather > Lörrach > Past weeks

Flag for Germany Past Weather in Lörrach, Baden-Württemberg, Germany — Yesterday and Last 2 Weeks

Now
81 °F

Passing clouds.


Feels Like: 81 °F
Forecast: 61 / 72 °F
Wind: 8 mph from Northwest

Location: Bale-Mulhouse

Current Time: Jul 30, 2016 at 1:17:01 PM

Latest Report: Jul 30, 2016 at 12:30 PM


Visibility: N/A

Pressure: 29.95 "Hg

Humidity: 51%

Dew Point: 61 °F

Location of LörrachLocation

Past Weather in Lörrach — Graph

°F

Lörrach Temperature Yesterday

Maximum temperature yesterday: 82 °F (at 3:30 PM)
Minimum temperature yesterday: 63 °F (at 12:30 AM)
Average temperature yesterday: 73 °F

High & Low Weather Summary for the Past Weeks

 TemperatureHumidityPressure
High95 °F (Jul 20, 3:30 PM)100% (Jul 16, 3:30 AM)30.33 "Hg (Jul 16, 3:30 AM)
Low45 °F (Jul 16, 5:00 AM)27% (Jul 19, 7:00 PM)29.95 "Hg (Jul 20, 4:00 PM)
Average71 °F70%30.10 "Hg
* Reported Jul 15 12:00 PM — Jul 30 12:00 PM, Lörrach, Weather by CustomWeather, © 2016

Note: Actual official high and low records may vary slightly from our data, if they occured in-between our weather recording intervals... More about our weather records

Advertising

Lörrach Weather History for the Previous 24 Hours

Scroll right to see more
 ConditionsComfort  
Time TempWeatherWind HumidityBarometerVisibility
12:00 PM
Sat, Jul 30
81 °FPassing clouds.5 mph54%29.98 "HgN/A
11:30 AM79 °FPassing clouds.6 mph58%29.98 "HgN/A
11:00 AM79 °FPassing clouds.2 mph54%29.98 "HgN/A
10:30 AM77 °FPassing clouds.3 mph57%29.98 "HgN/A
10:00 AM75 °FSunny.2 mph61%29.98 "Hg10 mi
9:30 AM72 °FSunny.3 mph69%29.98 "Hg10 mi
9:00 AM70 °FPassing clouds.6 mph73%29.98 "HgN/A
8:30 AM68 °FSunny.3 mph78%29.98 "Hg10 mi
8:00 AM66 °FPassing clouds.5 mph83%29.98 "HgN/A
7:30 AM64 °FPassing clouds.5 mph88%29.98 "HgN/A
7:00 AM63 °FPassing clouds.6 mph88%29.98 "HgN/A
6:30 AM63 °FClear.3 mph88%29.98 "Hg10 mi
6:00 AM63 °FPassing clouds.5 mph88%29.98 "HgN/A
5:30 AM63 °FClear.6 mph88%29.98 "Hg10 mi
5:00 AM63 °FClear.5 mph88%29.98 "Hg10 mi
4:30 AM59 °FClear.2 mph94%29.98 "Hg10 mi
4:00 AM59 °FClear.2 mph94%29.98 "Hg10 mi
3:30 AM59 °FClear.3 mph94%29.98 "Hg10 mi
3:00 AM59 °FClear.2 mph94%30.01 "Hg10 mi
2:30 AM59 °FClear.2 mph94%30.01 "Hg10 mi
2:00 AM59 °FClear.2 mph94%30.01 "Hg10 mi
1:30 AM61 °FClear.No wind88%30.01 "Hg10 mi
1:00 AM63 °FPassing clouds.3 mph88%30.01 "HgN/A
12:30 AM64 °FClear.2 mph83%30.01 "Hg10 mi
12:00 AM64 °FClear.2 mph88%30.01 "Hg10 mi
11:30 PM
Fri, Jul 29
64 °FClear.3 mph83%30.01 "Hg10 mi
11:00 PM64 °FClear.3 mph83%30.01 "Hg10 mi
10:30 PM66 °FClear.No wind83%30.01 "Hg10 mi
10:00 PM68 °FSunny.No wind73%29.98 "Hg10 mi
9:30 PM72 °FSunny.1 mph69%29.98 "Hg10 mi
9:00 PM77 °FSunny.2 mph54%29.98 "Hg10 mi
8:30 PM79 °FSunny.3 mph51%29.98 "Hg10 mi
8:00 PM79 °FPassing clouds.8 mph51%29.98 "HgN/A
7:30 PM81 °FPassing clouds.9 mph48%29.98 "HgN/A
7:00 PM81 °FPassing clouds.10 mph48%29.98 "HgN/A
6:30 PM81 °FPassing clouds.10 mph48%29.98 "HgN/A
6:00 PM82 °FPassing clouds.12 mph45%29.98 "HgN/A
5:30 PM82 °FPassing clouds.10 mph45%29.98 "HgN/A
5:00 PM82 °FPassing clouds.12 mph42%29.98 "HgN/A
4:30 PM82 °FPassing clouds.9 mph45%29.98 "HgN/A
4:00 PM81 °FPassing clouds.12 mph48%30.01 "HgN/A
3:30 PM82 °FPassing clouds.9 mph42%30.01 "HgN/A
3:00 PM81 °FPassing clouds.10 mph48%30.01 "HgN/A
2:30 PM81 °FPassing clouds.10 mph48%30.01 "HgN/A
2:00 PM81 °FPassing clouds.9 mph48%30.01 "HgN/A
1:30 PM81 °FPassing clouds.8 mph48%30.01 "HgN/A
1:00 PM81 °FPassing clouds.10 mph48%30.01 "HgN/A
Weather by CustomWeather, © 2016

See weather overviewHow to use our weather pages